Hourly Data Report for June 07, 2003

SHERBROOKE A
QUEBEC

45°26'00.000" N
71°41'00.000" W
241.40 m
7028124
71610
YSC

Download Data

Hourly Data (June 2003)
Hourly Data Report for June 7, 2003
TIME
LST
Temp Definition
°C
Dew Point Definition
°C
Rel Hum Definition
%
Precip. Amount Definition
mm

Wind Dir Definition
10's deg

Wind Spd Definition
km/h
Visibility Definition
km
Stn Press Definition
kPa
Hmdx Definition


Wind Chill Definition


Weather Definition


00:00 9.7 9.2 97   4 4 8.0 98.57      
01:00 10.1 9.6 97   7 4 12.9 98.66      
02:00 10.7 10.0 95   12 6 15.0 98.66      
03:00 10.2 9.6 96   11 6 12.9 98.65      
04:00 10.1 9.6 97     0 9.7 98.66      
05:00 11.3 10.6 95     0 15.0 98.69      
06:00 12.1 11.3 95     0 15.0 98.71      
07:00 13.9 12.3 90   36 9 24.1 98.70     Mostly Cloudy
08:00 16.7 13.1 79   12 4 24.1 98.68     Mostly Cloudy
09:00 18.8 13.7 72   31 4 24.1 98.65     Cloudy
10:00 20.2 12.7 62   14 4 24.1 98.61     Cloudy
11:00 21.2 12.2 56     0 24.1 98.57     Cloudy
12:00 21.6 11.5 53   28 4 24.1 98.50     Cloudy
13:00 22.1 12.6 55   23 6 24.1 98.45 25   Cloudy
14:00 22.2 11.7 51     0 24.1 98.40     Cloudy
15:00 22.4 13.8 58   26 7 24.1 98.32 26   Mostly Cloudy
16:00 18.5 11.3 63   19 17 24.1 98.37     Mostly Cloudy
17:00 16.3 13.4 83   18 9 15.0 98.36     Rain
18:00 15.9 14.1 89   34 4 15.0 98.30      
19:00 16.0 14.2 89   9 6 15.0 98.31      
20:00 15.2 13.5 90   12 6 15.0 98.32      
21:00 14.8 13.7 93   2 4 15.0 98.33      
22:00 14.5 13.6 94   11 6 15.0 98.34      
23:00 13.8 13.2 96     0 11.3 98.34      

Notes on Data Quality.

Legend

  • E = Estimated
  • M = Missing
  • NA = Not Available*
  • [empty] = Indicates an unobserved value
Date modified: